Change the Weather History Date:

Saturday, February 23, 2013

  Actual Average Record
Temperature  
Mean Temperature 42 °F -  
Max Temperature 48 °F 51 °F 62 °F (2005)
Min Temperature 37 °F 35 °F 28 °F (2011)
Degree Days  
Heating Degree Days 22    
Moisture  
Dew Point 35 °F    
Average Humidity 77    
Maximum Humidity 93    
Minimum Humidity 51    
Precipitation  
Precipitation 0.00 in 0.20 in - ()
Sea Level Pressure  
Sea Level Pressure 30.13 in    
Wind  
Wind Speed 8 mph ()    
Max Wind Speed 20 mph    
Max Gust Speed 23 mph    
Visibility 14.1 miles    
Events Rain    
Averages and records for this station are not official NWS values.
T = Trace of Precipitation, MM = Missing Value Source: Averaged Metar Reports

Daily Weather History Graph

Daily Weather History Graph

Search for Another Location

Airport or City:

Trip Planner

Search our weather history database for the weather conditions in past years. The results will help you decide how hot, cold, wet, or windy it might be!

Date:

Astronomy

Feb. 23, 2013 Rise Set
Actual Time 7:02 AM PST 5:43 PM PST
Civil Twilight 6:30 AM PST 6:15 PM PST
Nautical Twilight 5:53 AM PST 6:52 PM PST
Astronomical Twilight 5:17 AM PST 7:29 PM PST
Moon 3:54 PM PST (2/23) 5:34 AM PST (2/23)
Length of Visible Light 11h 45m
Length of Day
10h 41m
Waxing Gibbous, 96% of the Moon is Illuminated
Feb 23
Waxing Gibbous
Feb 25
Full
Mar 4
Last Quarter
Mar 11
New
Mar 19
First Quarter

Hourly Weather History & Observations

Time (PST) Temp. Windchill Dew Point Humidity Pressure Visibility Wind Dir Wind Speed Gust Speed Precip Events Conditions
12:00 AM 39.2 °F 32.0 °F 33.8 °F 81% 29.83 in 15.0 mi South 11.5 mph - N/A   Mostly Cloudy
1:00 AM 37.4 °F 30.3 °F 33.8 °F 87% 29.86 in 10.0 mi South 10.4 mph - N/A   Overcast
2:00 AM 37.4 °F 29.8 °F 33.8 °F 87% 29.88 in 15.0 mi South 11.5 mph - N/A   Overcast
3:00 AM 37.4 °F 31.4 °F 33.8 °F 87% 29.89 in 15.0 mi South 8.1 mph - N/A   Mostly Cloudy
4:00 AM 38 °F - 35 °F 85% 29.92 in 10 mi South 4.6 mph - -   Mostly Cloudy
4:00 AM 37.4 °F 34.9 °F 35.6 °F 93% 29.91 in 10.0 mi South 3.5 mph - N/A   Mostly Cloudy
5:00 AM 39.2 °F 32.5 °F 35.6 °F 87% 29.94 in 10.0 mi South 10.4 mph - N/A   Overcast
6:00 AM 37.4 °F 30.8 °F 33.8 °F 87% 29.97 in 10.0 mi South 9.2 mph - N/A   Overcast
7:00 AM 39.2 °F 34.2 °F 35.6 °F 87% 30.01 in 15.0 mi South 6.9 mph - N/A   Overcast
8:00 AM 39.2 °F 32.5 °F 35.6 °F 87% 30.05 in 20.0 mi South 10.4 mph - N/A   Mostly Cloudy
9:00 AM 41.0 °F 35.8 °F 35.6 °F 81% 30.08 in 20.0 mi SSW 8.1 mph - N/A   Mostly Cloudy
10:00 AM 42 °F - 37 °F 75% 30.12 in 19 mi South 6.9 mph - -   Mostly Cloudy
10:00 AM 41.0 °F 35.2 °F 37.4 °F 87% 30.11 in 20.0 mi South 9.2 mph - N/A   Mostly Cloudy
11:00 AM 42.8 °F 40.1 °F 35.6 °F 76% 30.14 in 20.0 mi WSW 4.6 mph - N/A Rain Light Rain Showers
11:42 AM 44.6 °F 39.2 °F 35.6 °F 71% 30.15 in 20.0 mi West 10.4 mph - N/A   Mostly Cloudy
12:00 PM 46.4 °F 39.0 °F 35.6 °F 66% 30.16 in 20.0 mi WSW 19.6 mph - N/A   Mostly Cloudy
1:00 PM 46.4 °F 39.8 °F 33.8 °F 62% 30.18 in 25.0 mi WSW 16.1 mph 23.0 mph N/A   Mostly Cloudy
2:00 PM 48.2 °F - 33.8 °F 58% 30.19 in 25.0 mi WSW 13.8 mph 23.0 mph N/A   Mostly Cloudy
3:00 PM 46.4 °F 40.4 °F 33.8 °F 62% 30.22 in 25.0 mi WSW 13.8 mph - N/A   Mostly Cloudy
4:00 PM 46 °F - 34 °F 51% 30.24 in 25 mi WSW 12.7 mph - -   Partly Cloudy
4:00 PM 46.4 °F 40.7 °F 33.8 °F 62% 30.23 in 25.0 mi WSW 12.7 mph - N/A   Mostly Cloudy
5:00 PM 44.6 °F 39.7 °F 33.8 °F 66% 30.25 in 25.0 mi South 9.2 mph - N/A   Mostly Cloudy
6:00 PM 41.0 °F 35.8 °F 33.8 °F 76% 30.27 in 25.0 mi SW 8.1 mph - N/A   Mostly Cloudy
7:00 PM 41.0 °F 36.4 °F 33.8 °F 76% 30.28 in 15.0 mi South 6.9 mph - N/A   Mostly Cloudy
8:00 PM 39.2 °F 33.6 °F 33.8 °F 81% 30.30 in 10.0 mi South 8.1 mph - N/A   Scattered Clouds
9:00 PM 37.4 °F 32.1 °F 32.0 °F 81% 30.32 in 10.0 mi SSW 6.9 mph - N/A   Mostly Cloudy
10:00 PM 40 °F - 35 °F 74% 30.32 in 10 mi WSW 2.3 mph - -   Mostly Cloudy
10:00 PM 39.2 °F - 33.8 °F 81% 30.32 in 10.0 mi Calm Calm - N/A   Mostly Cloudy
10:42 PM 41.0 °F 35.8 °F 35.6 °F 81% 30.32 in 10.0 mi South 8.1 mph - N/A Rain Light Rain
11:00 PM 41.0 °F 36.4 °F 35.6 °F 81% 30.34 in 10.0 mi South 6.9 mph - N/A Rain Light Rain